Regional Weather Roundup
Issued by NWS

Home | Current Version | Previous Version | Graphics & Text | Print | Product List | Glossary On
Versions: 1 2 3 4 5 6 7 8 9 10 11 12 13 14 15 16 17 18 19 20 21 22 23 24 25 26 27 28 29 30 31 32 33 34 35 36 37 38 39 40 41 42 43 44 45 46 47 48 49 50
000
ASUS43 KTOP 310510
RWRKS

STATE WEATHER ROUNDUP
NATIONAL WEATHER SERVICE DODGE CITY KS
 FOR NATIONAL WEATHER SERVICE GOODLAND KS
1200 AM CDT FRI JUL 31 2015

NOTE:  "FAIR" INDICATES FEW OR NO CLOUDS BELOW 12,000 FEET WITH NO
SIGNIFICANT WEATHER AND/OR OBSTRUCTIONS TO VISIBILITY.

KSZ001>006-013>018-027>032-041>047-310600-
...NORTHWEST KANSAS...

CITY           SKY/WX    TMP DP  RH WIND       PRES   REMARKS
GOODLAND       MOCLDY    72  64  76 S12       30.23S
HAYS           PTCLDY    72  63  73 S8        30.20S
HILL CITY      CLOUDY    77  67  71 S9        30.20S
RUSSELL        CLEAR     71  68  90 S9        30.17F
$$

KSZ061>065-074>080-084>089-310600-
...SOUTHWEST KANSAS...

CITY           SKY/WX    TMP DP  RH WIND       PRES   REMARKS
DODGE CITY     MOCLDY    71  68  90 S5        30.23F
ELKHART          N/A     73  65  76 E7          N/A
GARDEN CITY    CLOUDY    72  69  90 SE5       30.24S
GREAT BEND     CLEAR     72  66  83 SE6       30.20S
LIBERAL        CLOUDY    73  66  78 E8        30.25S
PRATT          PTCLDY    72  68  88 SE3       30.22S
$$

KSZ066>073-081>083-090>101-310600-
...SOUTHEAST KANSAS...

CITY           SKY/WX    TMP DP  RH WIND       PRES   REMARKS
CHANUTE        PTCLDY    76  65  68 CALM      30.16S
COFFEYVILLE    MOCLDY    76  73  91 E3        30.13F
HUTCHINSON     CLEAR     71  67  87 CALM      30.18F
MEDICINE LODGE   N/A     74  72  93 CALM      30.18S
NEWTON         CLEAR     72  64  78 SE6       30.20F
PARSONS        MOCLDY    72  69  90 CALM      30.16S
WICHITA INTL   PTCLDY    75  68  78 CALM      30.17F
WICHITA JABRA  PTCLDY    71  69  93 E3        30.18S
WICHITA MCCONL CLEAR     75  64  67 E5        30.18S
WINFIELD       PTCLDY    72  69  90 CALM      30.17S
$$

KSZ007>012-019>026-033>040-048>060-102>105-310600-
...NORTHEAST KANSAS...

CITY           SKY/WX    TMP DP  RH WIND       PRES   REMARKS
CONCORDIA      MOCLDY    73  67  81 S9        30.16F
EMPORIA        CLEAR     69  66  90 S6        30.17S
LAWRENCE       CLEAR     64  62  93 CALM      30.17R
MANHATTAN      CLEAR     68  65  90 CALM      30.16F
OLATHE IND     CLEAR     65  61  87 E5        30.18R
OLATHE EXE     CLEAR     68  60  75 CALM      30.17R
SALINA         CLEAR     72  67  84 S6        30.17S
TOPEKA BILLARD CLEAR     69  66  90 CALM      30.17R
TOPEKA FORBES  CLEAR     68  64  87 CALM      30.17R
$$


USA.gov is the U.S. government's official web portal to all federal, state and local government web resources and services.